• In Hungary
  • List of Countries
  • For 7 days
  • Water Temperature
  • Satellite Maps
  • Weather Map
  • News
  • Weather Widgets
  • user-avatar
    Login

    Hourly Weather Teplyaki

    Today, 19 July, Thursday

    Time Temperature Precipitation Wind Pressure Humidity
    00:00 +18°C° 0.1 mm 3 mps 744 mmHg 93%
    01:00 +18°C° 0.1 mm 3 mps 744 mmHg 93%
    02:00 +18°C° 0 mm 3 mps 744 mmHg 94%
    03:00 +17°C° 0 mm 3 mps 744 mmHg 94%
    04:00 +17°C° 0 mm 3 mps 745 mmHg 93%
    05:00 +18°C° 0 mm 3 mps 745 mmHg 92%
    06:00 +19°C° 0 mm 4 mps 745 mmHg 91%
    07:00 +20°C° 0 mm 4 mps 745 mmHg 89%
    08:00 +21°C° 0.1 mm 4 mps 745 mmHg 87%
    09:00 +22°C° 0.1 mm 4 mps 745 mmHg 84%
    10:00 +23°C° 0 mm 4 mps 746 mmHg 81%
    11:00 +23°C° 0.6 mm 4 mps 746 mmHg 79%
    12:00 +25°C° 0.6 mm 4 mps 745 mmHg 77%
    13:00 +26°C° 0.6 mm 4 mps 745 mmHg 75%
    14:00 +26°C° 0.5 mm 4 mps 745 mmHg 75%
    15:00 +26°C° 0.5 mm 4 mps 746 mmHg 75%
    16:00 +26°C° 0.5 mm 4 mps 746 mmHg 75%
    17:00 +25°C° 0.2 mm 4 mps 746 mmHg 78%
    18:00 +23°C° 0.2 mm 4 mps 746 mmHg 81%
    19:00 +24°C° 0.2 mm 3 mps 746 mmHg 84%
    20:00 +21°C° 0 mm 3 mps 746 mmHg 87%
    21:00 +20°C° 0 mm 4 mps 746 mmHg 90%
    22:00 +19°C° 0 mm 4 mps 746 mmHg 92%
    23:00 +18°C° 0 mm 3 mps 746 mmHg 94%

    Tomorrow, 20 July, Friday

    Time Temperature Precipitation Wind Pressure Humidity
    00:00 +18°C° 0 mm 3 mps 746 mmHg 95%
    01:00 +17°C° 0 mm 3 mps 746 mmHg 96%
    02:00 +17°C° 0 mm 3 mps 746 mmHg 96%
    03:00 +17°C° 0 mm 3 mps 746 mmHg 96%
    04:00 +17°C° 0 mm 3 mps 746 mmHg 97%
    05:00 +18°C° 0.3 mm 3 mps 746 mmHg 95%
    06:00 +19°C° 0.3 mm 4 mps 746 mmHg 94%
    07:00 +19°C° 0.3 mm 4 mps 747 mmHg 93%
    08:00 +20°C° 0.2 mm 4 mps 747 mmHg 90%
    09:00 +21°C° 0.2 mm 4 mps 747 mmHg 88%
    10:00 +22°C° 0.2 mm 4 mps 747 mmHg 85%
    11:00 +23°C° 0.9 mm 5 mps 747 mmHg 82%
    12:00 +25°C° 0.9 mm 5 mps 747 mmHg 80%
    13:00 +26°C° 0.9 mm 5 mps 747 mmHg 77%
    14:00 +26°C° 1.1 mm 5 mps 747 mmHg 79%
    15:00 +25°C° 1.1 mm 5 mps 747 mmHg 81%
    16:00 +24°C° 1.1 mm 6 mps 747 mmHg 83%
    17:00 +23°C° 0.1 mm 6 mps 747 mmHg 84%
    18:00 +22°C° 0.1 mm 5 mps 748 mmHg 86%
    19:00 +22°C° 0.1 mm 5 mps 748 mmHg 87%
    20:00 +21°C° 0 mm 5 mps 748 mmHg 87%
    21:00 +21°C° 0 mm 5 mps 748 mmHg 88%
    22:00 +20°C° 0 mm 5 mps 748 mmHg 88%
    23:00 +20°C° 0 mm 5 mps 748 mmHg 88%

    Day after tomorrow, 21 July, Saturday

    Time Temperature Precipitation Wind Pressure Humidity
    00:00 +19°C° 0 mm 6 mps 748 mmHg 89%
    01:00 +19°C° 0 mm 6 mps 748 mmHg 90%
    02:00 +19°C° 0.1 mm 6 mps 749 mmHg 90%
    03:00 +19°C° 0.1 mm 6 mps 749 mmHg 90%
    04:00 +19°C° 0.1 mm 5 mps 749 mmHg 91%
    05:00 +19°C° 0 mm 6 mps 749 mmHg 90%
    06:00 +19°C° 0 mm 6 mps 749 mmHg 89%
    07:00 +19°C° 0 mm 6 mps 750 mmHg 88%
    08:00 +20°C° 0 mm 7 mps 750 mmHg 83%
    09:00 +21°C° 0 mm 7 mps 750 mmHg 79%
    10:00 +22°C° 0 mm 7 mps 750 mmHg 74%
    11:00 +23°C° 0 mm 7 mps 750 mmHg 71%
    12:00 +24°C° 0 mm 7 mps 750 mmHg 68%
    13:00 +24°C° 0 mm 7 mps 750 mmHg 65%
    14:00 +24°C° 0 mm 6 mps 751 mmHg 65%
    15:00 +24°C° 0 mm 6 mps 751 mmHg 65%
    16:00 +25°C° 0 mm 5 mps 751 mmHg 64%
    17:00 +23°C° 0 mm 5 mps 751 mmHg 67%
    18:00 +22°C° 0 mm 5 mps 751 mmHg 70%
    19:00 +21°C° 0 mm 4 mps 751 mmHg 72%
    20:00 +20°C° 0 mm 4 mps 751 mmHg 71%
    21:00 +19°C° 0 mm 5 mps 751 mmHg 70%
    22:00 +16°C° 0 mm 5 mps 752 mmHg 69%
    23:00 +16°C° 0 mm 5 mps 752 mmHg 69%

    22 July, Sunday

    Time Temperature Precipitation Wind Pressure Humidity
    00:00 +15°C° 0 mm 5 mps 752 mmHg 69%
    01:00 +14°C° 0 mm 5 mps 752 mmHg 69%
    02:00 +14°C° 0 mm 5 mps 752 mmHg 70%
    03:00 +13°C° 0 mm 5 mps 752 mmHg 71%
    04:00 +12°C° 0 mm 5 mps 752 mmHg 72%
    05:00 +13°C° 0 mm 5 mps 752 mmHg 73%
    06:00 +14°C° 0 mm 5 mps 752 mmHg 75%
    07:00 +14°C° 0 mm 5 mps 753 mmHg 76%
    08:00 +16°C° 0 mm 6 mps 753 mmHg 72%
    09:00 +17°C° 0 mm 6 mps 753 mmHg 68%
    10:00 +20°C° 0 mm 7 mps 753 mmHg 65%
    11:00 +21°C° 0 mm 6 mps 752 mmHg 62%
    12:00 +21°C° 0 mm 6 mps 752 mmHg 58%
    13:00 +22°C° 0 mm 6 mps 752 mmHg 55%
    14:00 +22°C° 0 mm 6 mps 752 mmHg 56%
    15:00 +22°C° 0 mm 5 mps 752 mmHg 57%
    16:00 +23°C° 0 mm 5 mps 752 mmHg 57%
    17:00 +22°C° 0 mm 4 mps 752 mmHg 62%
    18:00 +21°C° 0 mm 4 mps 752 mmHg 66%
    19:00 +20°C° 0 mm 4 mps 752 mmHg 70%
    20:00 +18°C° 0 mm 4 mps 752 mmHg 70%
    21:00 +17°C° 0 mm 4 mps 753 mmHg 70%
    22:00 +14°C° 0 mm 4 mps 753 mmHg 70%
    23:00 +13°C° 0 mm 4 mps 753 mmHg 71%

    23 July, Monday

    Time Temperature Precipitation Wind Pressure Humidity
    00:00 +13°C° 0 mm 4 mps 753 mmHg 72%
    01:00 +12°C° 0 mm 3 mps 753 mmHg 73%
    02:00 +11°C° 0 mm 3 mps 754 mmHg 76%
    03:00 +10°C° 0 mm 3 mps 754 mmHg 78%
    04:00 +10°C° 0 mm 3 mps 754 mmHg 81%
    05:00 +11°C° 0 mm 3 mps 754 mmHg 79%
    06:00 +12°C° 0 mm 3 mps 754 mmHg 77%
    07:00 +13°C° 0 mm 4 mps 754 mmHg 76%
    08:00 +15°C° 0 mm 4 mps 754 mmHg 70%
    09:00 +18°C° 0 mm 4 mps 754 mmHg 65%
    10:00 +19°C° 0 mm 4 mps 754 mmHg 60%
    11:00 +20°C° 0 mm 4 mps 754 mmHg 58%
    12:00 +21°C° 0 mm 4 mps 754 mmHg 55%
    13:00 +22°C° 0 mm 4 mps 754 mmHg 53%
    14:00 +22°C° 0 mm 4 mps 754 mmHg 53%
    15:00 +23°C° 0 mm 4 mps 753 mmHg 54%
    16:00 +24°C° 0 mm 3 mps 753 mmHg 54%
    17:00 +24°C° 0 mm 3 mps 753 mmHg 59%
    18:00 +23°C° 0 mm 2 mps 753 mmHg 64%
    19:00 +23°C° 0 mm 1 mps 753 mmHg 69%
    20:00 +21°C° 0 mm 1 mps 753 mmHg 72%
    21:00 +19°C° 0 mm 1 mps 753 mmHg 74%
    22:00 +18°C° 0 mm 1 mps 754 mmHg 77%
    23:00 +16°C° 0 mm 2 mps 754 mmHg 78%

    24 July, Tuesday

    Time Temperature Precipitation Wind Pressure Humidity
    00:00 +16°C° 0 mm 2 mps 754 mmHg 80%
    01:00 +15°C° 0 mm 2 mps 754 mmHg 82%
    02:00 +15°C° 0 mm 1 mps 754 mmHg 83%
    03:00 +15°C° 0 mm 1 mps 754 mmHg 85%
    04:00 +15°C° 0 mm 1 mps 754 mmHg 86%
    05:00 +16°C° 0 mm 1 mps 754 mmHg 83%
    06:00 +18°C° 0 mm 1 mps 755 mmHg 81%
    07:00 +20°C° 0 mm 1 mps 755 mmHg 78%
    08:00 +22°C° 0 mm 1 mps 755 mmHg 73%
    09:00 +23°C° 0 mm 1 mps 755 mmHg 69%
    10:00 +25°C° 0 mm 1 mps 755 mmHg 64%
    11:00 +26°C° 0 mm 2 mps 755 mmHg 60%
    12:00 +27°C° 0 mm 2 mps 755 mmHg 57%
    13:00 +28°C° 0 mm 2 mps 755 mmHg 53%
    14:00 +28°C° 0 mm 2 mps 755 mmHg 54%
    15:00 +28°C° 0 mm 2 mps 755 mmHg 54%
    16:00 +28°C° 0 mm 2 mps 755 mmHg 55%
    17:00 +28°C° 0 mm 2 mps 755 mmHg 60%
    18:00 +27°C° 0 mm 2 mps 754 mmHg 64%
    19:00 +26°C° 0 mm 1 mps 754 mmHg 69%
    20:00 +24°C° 0 mm 1 mps 754 mmHg 71%
    21:00 +23°C° 0 mm 1 mps 755 mmHg 73%
    22:00 +20°C° 0 mm 2 mps 755 mmHg 76%
    23:00 +20°C° 0 mm 1 mps 755 mmHg 77%
    Show more